Weather in Yuzhny

Russia / Novosibirsk Oblast     54°39′09″N   83°04′46″E
temp.,
°C
wind,
m/s
gust,
m/s
humid.,
%
clouds,
%
prec.,
mm/h
press.,
hPa
HPBL,
m
28 february, sun
sun2801:00−28ssw349486 0.1 103923
04:00−29s339461 0.0 103820
07:00−29sse349356 0.0 103926
10:00−27se469448 0.0 1037103
13:00−21sse579050 0.0 1035299
16:00−16sse588593 0.0 1032483
19:00−14se469596 0.1 1028228
22:00−13se6994100 0.6 1025262
1 march, mon
mon101:00−12se5994100 0.8 1022241
04:00−10se61093100 0.4 1018314
07:00−8se61094100 1.8 1014374
10:00−6sse61194100 1.9 1011625
13:00−3sse61096100 4.4 1009512
16:000sw61199100 3.2 1007420
19:000sw61199100 5.1 1006434
22:00−1wsw71296100 2.7 1007432
2 march, tue
tue201:00−9n3495100 3.4 100865
04:00−11n339594 0.4 101181
07:00−13nnw239693 0.8 101422
10:00−14nnw229584 0.1 1016108
13:00−13w349188 0.3 1018302
16:00−11wsw2587100 0.1 1018469
19:00−12wsw239599 0.3 101843
22:00−15ssw119796 0.1 101820
3 march, wed
wed301:00−14se119598 0.1 101620
04:00−13ese1196100 0.2 101533
07:00−14ese1196100 0.4 101620
10:00−13sse0094100 0.3 101677
13:00−11wsw2291100 0.6 1017243
16:00−10wsw3491100 0.3 1018368
19:00−11wsw459598 0.4 102094
22:00−14sw349387 0.1 102235
4 march, thu
thu401:00−16ssw459592 0.1 102477
04:00−19s349573 0.0 102430
07:00−20sse459575 0.0 102557
10:00−16sse699095 0.0 1024239
13:00−12sse6108995 0.0 1023369
16:00−7sse61187100 0.0 1021554
19:00−9sse5989100 0.0 1019181
22:00−8sse61187100 0.0 1017204